Hourly Weather Roundup
Issued by NWS Central Illinois

Home | Current Version | Previous Version | Text Only | Print | Product List | Glossary On
Versions: 1 2 3 4 5 6 7 8 9 10 11 12 13 14 15 16 17 18 19 20 21 22 23 24 25 26 27 28 29 30 31 32 33 34 35 36 37 38 39 40 41 42 43 44 45 46 47 48 49 50
000
NZUS43 KILX 251310
HWRILX

AREA WEATHER ROUNDUP
NATIONAL WEATHER SERVICE, LINCOLN IL
700 AM CST SAT FEB 25 2017


CITY           SKY/WX    TMP DP  RH WIND       PRES   REMARKS
BLOOMINGTON    FLURRIES  22  15  75 NW25G31   29.85R WCI   5
CHAMPAIGN      FLURRIES  25  18  74 W29G36    29.84R WCI   8
DECATUR        CLOUDY    24  14  65 NW16G33   29.89R WCI  11
EFFINGHAM      CLOUDY   N/A N/A N/A W22G32    29.94R
FLORA          CLOUDY    31  19  62 NW18G26   29.95R WCI  19
GALESBURG      CLEAR     19  15  81 W15       29.91R WCI   5
JACKSONVILLE   MOCLDY    24  16  71 W25G31    29.96R WCI   8
LACON          CLOUDY    22  17  79 NW15G25   29.87R WCI   9
LAWRENCEVILLE  CLOUDY    31  21  66 W17G25    29.92R WCI  19
LITCHFIELD     CLOUDY    27  17  64 W18G29    29.95R WCI  14
$$


CITY           SKY/WX    TMP DP  RH WIND       PRES   REMARKS
LINCOLN        CLOUDY    26  17  69 NW9       29.91R WCI  16
MACOMB         CLEAR     21  16  79 NW20      29.97R WCI   6
MATTOON        CLOUDY    25  15  66 NW30G38   29.90R WCI   8
MT CARMEL AP   CLOUDY    31  21  66 NW16G24   29.93R WCI  20
OLNEY-NOBLE AP CLOUDY    30  23  74 W21G29    29.94R WCI  17
PARIS          CLOUDY    27  19  72 W28       29.87R WCI  12
PEORIA         MOCLDY    23  14  68 W14G26    29.89R WCI  11
PONTIAC        FLURRIES  25  19  80 NW18      29.83R WCI  11
RANTOUL        LGT SNOW  26  22  83 W28G35    29.83R WCI  11
SPRINGFIELD    CLOUDY    27  16  63 W21G28    29.92R WCI  13
TAYLORVILLE    CLOUDY    26  15  62 W25G33    29.93R WCI  11
$$

...REGIONAL REPORTS...


CITY           SKY/WX    TMP DP  RH WIND       PRES   REMARKS
CHICAGO O`HARE MOCLDY    23  15  71 NW16G24   29.74R WCI  10
KANKAKEE       CLOUDY    26  17  68 W20G28    29.79R WCI  12
MOLINE         CLEAR     22  12  65 NW22G30   29.89R WCI   6
MOUNT STERLING PTCLDY    22  14  71 W17G23    29.97R WCI   7
MOUNT VERNON   FLURRIES  29  19  66 W13G20    29.98R WCI  19
PITTSFIELD     MOCLDY    24  14  65 W9G26     30.00R WCI  15
QUINCY         MOCLDY    22  15  75 NW20G25   30.00R WCI   7
ROCKFORD       CLOUDY    20  14  77 NW16      29.81R WCI   6
$$


CITY           SKY/WX    TMP DP  RH WIND       PRES   REMARKS
BURLINGTON     CLEAR     20  13  74 NW13G22   29.95R WCI   7
CEDAR RAPIDS   CLEAR     15  12  88 W15       29.92R WCI   0
DES MOINES     PTCLDY    18  10  71 NW16G24   30.02R WCI   3
KIRKSVILLE     PTCLDY    19  13  77 W12       30.03R WCI   7
OTTUMWA        CLEAR     17  11  77 NW13      29.99R WCI   4
ST LOUIS       MOCLDY    28  14  55 NW23G31   30.00R WCI  14
$$


CITY           SKY/WX    TMP DP  RH WIND       PRES   REMARKS
TERRE HAUTE    FLURRIES  29  19  66 W22G33    29.86R WCI  15
EVANSVILLE     CLOUDY    32  18  56 W15G26    29.95R WCI  22
INDIANAPOLIS   LGT SNOW  29  26  89 W23G33    29.78R VSB 1   WCI  15
LAFAYETTE      CLOUDY    28  23  81 W22G29    29.76R WCI  14
MADISON        LGT SNOW  18  13  80 NW8       29.75R WCI   8
MILWAUKEE      LGT SNOW  21  15  78 W15       29.69R WCI   8
$$





USA.gov is the U.S. government's official web portal to all federal, state and local government web resources and services.